{"data":{"norad_id":69893,"intl_designator":"2026-156AA","name":"ICEYE-X80","alt_names":[],"object_type":"PAYLOAD","status":"ACTIVE","operator":null,"country":"FIN","launch_date":"2026-07-07","launch_site_code":"AFWTR","launch_vehicle":null,"mission":null,"orbit_class":"UNKNOWN","rcs_meters":null,"size_class":null,"mass_kg":null,"dimensions":null,"purposes":[],"wikipedia_slug":null,"has_3d_model":false,"image_url":null,"decayed_at":null,"tle_current":{"epoch":"2026-09-19T22:39:43.020288Z","epoch_age_seconds":69688,"freshness":"FRESH","line1":"1 69893U 26156AA  26262.94424792  .00001764  00000+0  18120-3 0  9996","line2":"2 69893  97.7458 162.1209 0003755 254.6400 105.4404 14.91626443 11122","mean_motion":14.91626443,"eccentricity":0.0003755,"inclination_deg":97.7458,"raan_deg":162.1209,"arg_perigee_deg":254.64,"mean_anomaly_deg":105.4404,"bstar":0.0001812,"rev_number":1112,"period_min":96.538916077663,"perigee_km":590.24607528359,"apogee_km":595.48129679881,"semimajor_km":6971.0006860412,"source":"CELESTRAK","updated_at":"2026-09-20T09:00:25.169329Z"}}}